Powrót do katalogu

AMAZONAS 4A

AktywnyŁącznośćGEO
NORAD 39616·PAYLOAD·🇧🇷 Brazil

Wystrzelony Mar 22, 2014 z Guiana Space Centre

Loading…

TLE

ŚwieżeSource: Space-Track

Epoka: Sep 14, 2026, 11:44 UTC

1 39616U 14011A   26257.48920609 -.00000261  00000-0  00000-0 0  9992
2 39616   0.0509 178.6596 0006044   4.6619 272.2653  1.00273196 45604

Śledź AMAZONAS 4A w czasie rzeczywistym z AllMySat

Download on the App Store